Dublin, Ireland

8:00 PM IST on August 27, 2016 (GMT +0100)
Dublin International

Weather History for EIDW - June, 2013

Change the Weather History Date:

Tuesday, June 11, 2013

  Actual Average Record
Temperature  
Mean Temperature 58 °F -  
Max Temperature 65 °F 64 °F 71 °F (2007)
Min Temperature 50 °F 50 °F 39 °F (2005)
Degree Days  
Heating Degree Days 8    
Growing Degree Days 8 (Base 50)    
Moisture  
Dew Point 53 °F    
Average Humidity 92    
Maximum Humidity 100    
Minimum Humidity 77    
Precipitation  
Precipitation 0.20 in 0.07 in - ()
Sea Level Pressure  
Sea Level Pressure 29.70 in    
Wind  
Wind Speed 15 mph ()    
Max Wind Speed 22 mph    
Max Gust Speed -    
Visibility 5.5 miles    
Events Rain    
Averages and records for this station are not official NWS values.
T = Trace of Precipitation, MM = Missing Value Source: Averaged Metar Reports

Daily Weather History Graph

Daily Weather History Graph

Search for Another Location

Airport or City:

Trip Planner

Search our weather history database for the weather conditions in past years. The results will help you decide how hot, cold, wet, or windy it might be!

Date:

Astronomy

Jun. 11, 2013 Rise Set
Actual Time 4:57 AM IST 9:53 PM IST
Civil Twilight 4:05 AM IST 10:45 PM IST
Nautical Twilight 2:34 AM IST 12:16 AM IST
Astronomical Twilight Sun does not set Sun does not set
Moon 7:45 AM IST (6/11) 11:24 PM IST (6/11)
Length of Visible Light 18h 40m
Length of Day
16h 56m
Waxing Crescent, 7% of the Moon is Illuminated
Jun 11
Waxing Crescent
Jun 16
First Quarter
Jun 23
Full
Jun 30
Last Quarter
Jul 8
New

Hourly Weather History & Observations

Time (IST) Temp. Dew Point Humidity Pressure Visibility Wind Dir Wind Speed Gust Speed Precip Events Conditions
12:00 AM 53.6 °F 50.0 °F 88% 29.83 in 6.2 mi SSE 18.4 mph - N/A Rain Rain
12:30 AM 53.6 °F 50.0 °F 88% 29.80 in 6.2 mi SSE 19.6 mph - N/A   Mostly Cloudy
1:00 AM 52 °F 50 °F 92% 29.82 in 7 mi SSE 22.4 mph - - Rain Light Rain
1:00 AM 51.8 °F 50.0 °F 94% 29.80 in 6.2 mi SSE 20.7 mph - N/A Rain Light Rain
1:30 AM 51.8 °F 50.0 °F 94% 29.80 in 6.2 mi SSE 18.4 mph - N/A Rain Light Rain
2:00 AM 51.8 °F 50.0 °F 94% 29.80 in 6.2 mi SSE 17.3 mph - N/A Rain Light Rain
2:30 AM 51.8 °F 50.0 °F 94% 29.77 in 6.2 mi SE 18.4 mph - N/A Rain Light Rain
3:00 AM 51.8 °F 50.0 °F 94% 29.77 in 6.2 mi SE 16.1 mph - N/A Rain Light Rain
3:30 AM 51.8 °F 50.0 °F 94% 29.74 in 6.2 mi SSE 16.1 mph - N/A Rain Light Rain
4:00 AM 51.8 °F 50.0 °F 94% 29.74 in 5.6 mi SE 18.4 mph - N/A Rain Light Rain
4:30 AM 50.0 °F 50.0 °F 100% 29.74 in 5.0 mi SE 17.3 mph - N/A Rain Light Rain
5:00 AM 50.0 °F 50.0 °F 100% 29.74 in 3.7 mi SE 18.4 mph - N/A Rain Rain
5:30 AM 50.0 °F 50.0 °F 100% 29.74 in 2.5 mi SE 19.6 mph - N/A Rain Rain
6:00 AM 50.0 °F 50.0 °F 100% 29.74 in 2.5 mi SE 16.1 mph - N/A Rain Light Rain
6:30 AM 50.0 °F 50.0 °F 100% 29.71 in 2.5 mi SE 17.3 mph - N/A Rain Light Rain
7:00 AM 51 °F 50 °F 96% 29.73 in 2 mi SE 13.4 mph - - Rain Light Rain
7:00 AM 50.0 °F 50.0 °F 100% 29.71 in - SE 15.0 mph - N/A Rain Light Rain
7:30 AM 51.8 °F 50.0 °F 94% 29.71 in - SE 16.1 mph - N/A Rain Light Rain
8:00 AM 51.8 °F 50.0 °F 94% 29.71 in 1.7 mi SE 18.4 mph - N/A Rain Light Rain
8:30 AM 51.8 °F 51.8 °F 100% 29.68 in - SE 19.6 mph - N/A Rain Light Rain
9:00 AM 51.8 °F 51.8 °F 100% 29.68 in 2.2 mi SE 16.1 mph - N/A   Light Drizzle
9:30 AM 51.8 °F 51.8 °F 100% 29.68 in 2.2 mi SE 17.3 mph - N/A Rain Light Rain
10:00 AM 53.6 °F 51.8 °F 94% 29.68 in 1.9 mi SE 20.7 mph - N/A   Light Drizzle
10:30 AM 53.6 °F 53.6 °F 100% 29.68 in 1.9 mi SE 18.4 mph - N/A   Light Drizzle
11:00 AM 55.4 °F 53.6 °F 94% 29.65 in 6.2 mi SSE 20.7 mph - N/A   Mostly Cloudy
11:30 AM 57.2 °F 55.4 °F 94% 29.65 in 6.2 mi SE 19.6 mph - N/A   Mostly Cloudy
12:00 PM 59.0 °F 57.2 °F 94% 29.65 in 6.2 mi SE 17.3 mph - N/A   Mostly Cloudy
12:30 PM 59.0 °F 55.4 °F 88% 29.65 in 6.2 mi SE 15.0 mph - N/A   Mostly Cloudy
1:00 PM 60 °F 57 °F 86% 29.67 in 8 mi SE 11.2 mph - -   Partly Cloudy
1:00 PM 60.8 °F 57.2 °F 88% 29.65 in 6.2 mi SE 11.5 mph - N/A   Mostly Cloudy
1:30 PM 60.8 °F 57.2 °F 88% 29.65 in 6.2 mi ESE 12.7 mph - N/A   Mostly Cloudy
2:00 PM 62.6 °F 57.2 °F 82% 29.65 in 6.2 mi SE 10.4 mph - N/A   Mostly Cloudy
2:30 PM 60.8 °F 57.2 °F 88% 29.65 in 6.2 mi SE 13.8 mph - N/A   Mostly Cloudy
3:00 PM 60.8 °F 57.2 °F 88% 29.65 in 5.6 mi SE 10.4 mph - N/A Rain Light Rain Showers
3:30 PM 62.6 °F 59.0 °F 88% 29.65 in 6.2 mi SE 8.1 mph - N/A   Mostly Cloudy
4:00 PM 64.4 °F 59.0 °F 83% 29.65 in 6.2 mi ESE 8.1 mph - N/A   Mostly Cloudy
4:30 PM 60.8 °F 59.0 °F 94% 29.68 in 6.2 mi SW 11.5 mph - N/A Rain Light Rain Showers
5:00 PM 62.6 °F 57.2 °F 82% 29.65 in 6.2 mi West 10.4 mph - N/A Rain Light Rain Showers
5:30 PM 62.6 °F 55.4 °F 77% 29.65 in 6.2 mi WSW 11.5 mph - N/A   Mostly Cloudy
6:00 PM 60.8 °F 57.2 °F 88% 29.65 in 5.6 mi WSW 10.4 mph - N/A Rain Light Rain Showers
6:30 PM 60.8 °F 57.2 °F 88% 29.68 in 6.2 mi SW 9.2 mph - N/A Rain Light Rain Showers
7:00 PM 58 °F 55 °F 88% 29.68 in 11 mi WSW 11.2 mph - - Rain Light Rain
7:00 PM 59.0 °F 55.4 °F 88% 29.68 in 6.2 mi WSW 10.4 mph - N/A Rain Light Rain
7:30 PM 57.2 °F 53.6 °F 88% 29.68 in 6.2 mi SW 8.1 mph - N/A Rain Light Rain
8:00 PM 57.2 °F 55.4 °F 94% 29.68 in 5.6 mi SW 6.9 mph - N/A Rain Light Rain
8:30 PM 57.2 °F 53.6 °F 88% 29.68 in 6.2 mi SW 10.4 mph - N/A Rain Light Rain
9:00 PM 55.4 °F 51.8 °F 88% 29.68 in 6.2 mi SW 10.4 mph - N/A Rain Light Rain
9:30 PM 53.6 °F 51.8 °F 94% 29.68 in 6.2 mi SSW 4.6 mph - N/A   Mostly Cloudy
10:00 PM 55.4 °F 51.8 °F 88% 29.68 in 6.2 mi SE 5.8 mph - N/A   Mostly Cloudy
10:30 PM 55.4 °F 51.8 °F 88% 29.68 in 6.2 mi SE 9.2 mph - N/A   Mostly Cloudy
11:00 PM 53.6 °F 51.8 °F 94% 29.68 in 6.2 mi SE 9.2 mph - N/A   Mostly Cloudy
11:30 PM 53.6 °F 51.8 °F 94% 29.65 in 6.2 mi SE 9.2 mph - N/A   Mostly Cloudy